Weather History for TJSJ - July, 2014

Change the Weather History Date:

Wednesday, July 30, 2014

  Actual Average Record
Temperature  
Mean Temperature 84 °F 84 °F  
Max Temperature 90 °F 89 °F 94 °F (1990)
Min Temperature 78 °F 78 °F 71 °F (1955)
Degree Days  
Heating Degree Days 0 0  
Month to date heating degree days 0 0  
Since 1 June heating degree days 0 0  
Since 1 July heating degree days 0 0  
Cooling Degree Days 19 18  
Month to date cooling degree days 607 540  
Year to date cooling degree days 3623 3254  
Since 1 June cooling degree days 1217 1089  
Growing Degree Days 34 (Base 50)    
Moisture  
Dew Point 74 °F    
Average Humidity 72    
Maximum Humidity 85    
Minimum Humidity 59    
Precipitation  
Precipitation 0.00 in 0.15 in 2.08 in (2006)
Month to date precipitation 3.40 4.91  
Year to date precipitation 22.58 28.00  
Sea Level Pressure  
Sea Level Pressure 30.02 in    
Wind  
Wind Speed 8 mph (ENE)    
Max Wind Speed 23 mph    
Max Gust Speed 26 mph    
Visibility 10 miles    
Events      
T = Trace of Precipitation, MM = Missing Value Source: NWS Daily Summary

Daily Weather History Graph

Daily Weather History Graph

Search for Another Location

Airport or City:

Trip Planner

Search our weather history database for the weather conditions in past years. The results will help you decide how hot, cold, wet, or windy it might be!

Date:

Astronomy

Jul. 30, 2014 Rise Set
Actual Time 6:01 AM AST 6:59 PM AST
Civil Twilight 5:37 AM AST 7:22 PM AST
Nautical Twilight 5:10 AM AST 7:50 PM AST
Astronomical Twilight 4:42 AM AST 8:18 PM AST
Moon 8:54 AM AST (7/30) 9:19 PM AST (7/30)
Length of Visible Light 13h 44m
Length of Day
12h 58m
Waxing Crescent, 12% of the Moon is Illuminated
Jul 30
Waxing Crescent
Aug 3
First Quarter
Aug 10
Full
Aug 17
Last Quarter
Aug 25
New

Hourly Weather History & Observations

Time (AST) Temp. Heat Index Dew Point Humidity Pressure Visibility Wind Dir Wind Speed Gust Speed Precip Events Conditions
12:56 AM 81.0 °F 85.8 °F 73.0 °F 77% 30.05 in 10.0 mi Calm Calm - N/A   Partly Cloudy
1:56 AM 80.1 °F 84.2 °F 73.0 °F 79% 30.04 in 10.0 mi Calm Calm - N/A   Partly Cloudy
2:56 AM 80.1 °F 84.2 °F 73.0 °F 79% 30.03 in 10.0 mi Calm Calm - N/A   Partly Cloudy
3:56 AM 80.1 °F 84.2 °F 73.0 °F 79% 30.02 in 10.0 mi Calm Calm - N/A   Partly Cloudy
4:56 AM 79.0 °F - 73.9 °F 84% 30.02 in 10.0 mi Calm Calm - N/A   Partly Cloudy
5:56 AM 79.0 °F - 73.9 °F 84% 30.03 in 10.0 mi Calm Calm - N/A   Partly Cloudy
6:56 AM 80.1 °F 84.5 °F 73.9 °F 81% 30.04 in 10.0 mi Calm Calm - N/A   Partly Cloudy
7:56 AM 82.0 °F 87.9 °F 73.9 °F 76% 30.04 in 10.0 mi East 6.9 mph - N/A   Partly Cloudy
8:56 AM 84.0 °F 91.2 °F 73.9 °F 72% 30.04 in 10.0 mi East 10.4 mph - N/A   Partly Cloudy
9:56 AM 84.9 °F 92.1 °F 73.9 °F 69% 30.05 in 10.0 mi ENE 9.2 mph - N/A   Scattered Clouds
10:56 AM 88.0 °F 96.5 °F 73.9 °F 63% 30.04 in 10.0 mi NE 16.1 mph - N/A   Scattered Clouds
11:56 AM 88.0 °F 96.5 °F 73.9 °F 63% 30.03 in 10.0 mi NE 13.8 mph - N/A   Scattered Clouds
12:56 PM 89.1 °F 99.1 °F 75.0 °F 63% 30.01 in 10.0 mi NE 20.7 mph - N/A   Scattered Clouds
1:56 PM 89.1 °F 98.0 °F 73.9 °F 61% 30.00 in 10.0 mi ENE 20.7 mph 25.3 mph N/A   Partly Cloudy
2:56 PM 89.1 °F 97.0 °F 73.0 °F 59% 29.97 in 10.0 mi ENE 19.6 mph - N/A   Scattered Clouds
3:56 PM 84.9 °F 92.1 °F 73.9 °F 69% 29.98 in 10.0 mi ENE 17.3 mph - N/A   Scattered Clouds
4:56 PM 84.9 °F 91.4 °F 73.0 °F 67% 29.99 in 10.0 mi ENE 11.5 mph - N/A   Scattered Clouds
5:56 PM 84.0 °F 90.2 °F 73.0 °F 69% 29.99 in 10.0 mi East 12.7 mph - N/A   Scattered Clouds
6:56 PM 82.9 °F 88.8 °F 73.0 °F 72% 29.99 in 10.0 mi ENE 9.2 mph - N/A   Scattered Clouds
7:56 PM 81.0 °F 86.2 °F 73.9 °F 79% 30.01 in 10.0 mi East 5.8 mph - N/A   Scattered Clouds
8:56 PM 82.0 °F 87.9 °F 73.9 °F 76% 30.02 in 10.0 mi East 3.5 mph - N/A   Partly Cloudy
9:56 PM 82.0 °F 87.9 °F 73.9 °F 76% 30.04 in 10.0 mi East 4.6 mph - N/A   Partly Cloudy
10:56 PM 80.1 °F 84.5 °F 73.9 °F 81% 30.04 in 10.0 mi East 3.5 mph - N/A   Partly Cloudy
11:56 PM 81.0 °F 85.8 °F 73.0 °F 77% 30.03 in 10.0 mi Calm Calm - N/A   Partly Cloudy